This is the latest recevied weather packets stored in our database for station/object GOLDWX. If no packets are shown the sender has not sent any weather packets the latest 10 day(s).
| Time | Temp. | Humidity | Pressure | Rain* | Wind** | Luminosity | Snow |
|---|---|---|---|---|---|---|---|
| 1777553285 | 6.67° C | 62% | 1016.6 hPa | 0 mm | - | - | - |
| 1777552683 | 6.67° C | 61% | 1016.6 hPa | 0 mm | - | - | - |
| 1777552383 | 6.67° C | 62% | 1016.6 hPa | 0 mm | - | - | - |
| 1777551781 | 7.22° C | 60% | 1016.6 hPa | 0 mm | - | - | - |
| 1777551480 | 7.22° C | 59% | 1016.6 hPa | 0 mm | - | - | - |
| 1777550878 | 7.22° C | 58% | 1016.7 hPa | 0 mm | - | - | - |
| 1777550578 | 7.22° C | 58% | 1016.7 hPa | 0 mm | - | - | - |
| 1777549976 | 7.22° C | 58% | 1016.5 hPa | 0 mm | - | - | - |
| 1777549675 | 7.22° C | 58% | 1016.7 hPa | 0 mm | - | - | - |
| 1777549073 | 7.22° C | 59% | 1016.5 hPa | 0 mm | - | - | - |
| 1777548772 | 7.22° C | 60% | 1016.4 hPa | 0 mm | - | - | - |
| 1777548171 | 7.22° C | 62% | 1016.5 hPa | 0 mm | - | - | - |
| 1777547870 | 7.22° C | 61% | 1016.6 hPa | 0 mm | - | - | - |
| 1777547268 | 7.78° C | 57% | 1016.4 hPa | 0 mm | - | - | - |
| 1777546968 | 7.78° C | 57% | 1016.4 hPa | 0 mm | - | - | - |
| 1777546444 | 7.78° C | 58% | 1016.6 hPa | 0 mm | - | - | - |
| 1777546366 | 7.78° C | 58% | 1016.6 hPa | 0 mm | - | - | - |
| 1777546065 | 7.78° C | 60% | 1016.8 hPa | 0 mm | - | - | - |
| 1777545463 | 7.78° C | 59% | 1016.5 hPa | 0 mm | - | - | - |
| 1777545163 | 8.33° C | 57% | 1016.5 hPa | 0 mm | - | - | - |
| 1777544561 | 8.33° C | 56% | 1016.5 hPa | 0 mm | - | - | - |
| 1777544260 | 8.33° C | 56% | 1016.3 hPa | 0 mm | - | - | - |
| 1777543658 | 8.33° C | 55% | 1016.4 hPa | 0 mm | - | - | - |
| 1777543358 | 8.33° C | 56% | 1016.4 hPa | 0 mm | - | - | - |
| 1777542756 | 7.78° C | 58% | 1016.4 hPa | 0 mm | - | - | - |
* Rain since midnight (hover to see other rain measurements)
** Current wind speed in m/s (hover to see current wind gust speed)